Location: Bodest
(46.3000°N, 22.5667°E)
Time: 13:35:15
(UTC+00:00)

Cosmos 1844 Rocket - Pass Details

Date: 01 June 2022
Orbit: 826 x 843 km, 71.0° (Epoch: 28 June)

Event Time Altitude Azimuth Distance (km) Brightness Sun altitude
Rises 20:36:03 0° 328° (NNW) 3,379 7.6 -17.0°
Reaches altitude 10° 20:38:35 10° 322° (NW) 2,440 6.3 -17.2°
Maximum altitude 20:43:51 45° 252° (WSW) 1,123 3.4 -17.6°
Enters shadow 20:46:54 23° 193° (SSW) 1,682 3.8 -17.9°
